Showing default

PUJIANG 2 (PJ-2), 52151

Orbit data source: Space-Track

PUJIANG 2 (PJ-2), 52151 is a payload satellite owned by SAST (CN) in SSO that was launched on Tue, 29 Mar 2022 UTC via a CHANG ZHENG 6A launch vehicle from the Taiyaun Space Center, China (TSC). Payload-class satellites include a variety of spacecraft equipped with specific instruments for various scientific and technological missions. These include communications satellites like Starlink; space stations such as the ISS; scientific satellites like the Hubble; Earth observation satellites from companies like Planet Labs, Umbra, and HawkEye 360; GPS; miniature CubeSats for education and research; and military/defense satellites.

Loading next visibility...
Identifier
52151, 2022-031B
Orbit
SSO
Country
Flag of CNCN / PRC
Related business
Manufacturer
SAST/SISE
Mission
Operational Amateur Technology
Bus & Motor
PJ, Unknown motor
Mass
2,000 kg wet, ~2,000 kg dry
Launch date (UTC)
2022-03-29 (4 years ago)
Launch vehicle
CHANG ZHENG 6A
Launch site
Taiyaun Space Center, China (TSC)
Object type
Payload
Rocket body
Debris
Shape & HBR
Box + 2 Pan, 3.8 m
Radar Cross Section
20.131 m², Large (>1 m²)

Expand to show TLE details & history
Last TLE update: 22 hours ago

TLE from 22 hours ago
0 PUJIANG 2 (PJ-2)
1 52151U 22031B   26172.52603891  .00000517  00000-0  53519-4 0  9994
2 52151  97.8614 358.0716 0011657 181.4003 178.7186 14.94318621230448
Epoch: 2026-06-21T12:37Z
TLE epoch observation values (Epoch: 2026-06-21T12:37:29.761Z)
Latitude
-0.00006°
Longitude
-101.02744°
Altitude
595.647 km
Speed
7.558 km/s
True Right ascension
23h 52m 17s
True Declination
0° 00' 00"
Sunlit
Object was in daylight at epoch
Visualization orbit readout
Latitude
Unknown
Longitude
Unknown
Altitude
Unknown
Speed
Unknown
Apparent Right ascension
Unknown
Apparent Declination
Unknown
Sunlit
N/A
Visualization observer readout
Local Sidereal Time
21:23:45
Azimuth
Unknown
Elevation
Unknown
Doppler factor
Unknown
Orbital elements
Apogee altitude
589.621 km
Perigee altitude
573.396 km
Semi-major axis
6,959.646 km
Eccentricity
0.00117
Inclination
97.8614°
RAAN
358.0716°
Arg. of periapsis
181.4003°
True anomaly
178.72158°
Mean anomaly
178.7186°
Eccentric anomaly
178.72009°
Mean motion
3.7382 °/min
Orbital period
96.3 mins
BSTAR
0.000053519
Loading maneuver chart data...
Computing Atmospheric mass density...
Loading historical data...
Loading historical data...
Loading historical data...
Loading historical data...
Loading historical data...
Loading historical data...
Loading historical data...
Other satellites on launch #31 in the year 2022 (2022-03-29 UTC)

Documentation

Showing up to 5 results
|